Location: Sungai Buloh
(3.1000°N, 113.0000°E)
Time: 17:23:58
(UTC+00:00)

ARIANE 5 R/B - Pass Details

Date: 12 January 2026
Orbit: 243 x 21055 km, 6.3° (Epoch: 11 February)

Event Time Altitude Azimuth Distance (km) Brightness Sun altitude
Rises 11:52:15 0° 248° (WSW) 2,850 6.7 -18.8°
Reaches altitude 10° 11:53:38 10° 243° (WSW) 2,321 5.7 -19.1°
Maximum altitude 11:58:42 56° 163° (SSE) 1,858 3.9 -20.3°
Enters shadow 12:15:54 20° 93° (E) 7,897 6.6 -24.2°
Exits shadow 12:51:20 - 87° (E) 16,978 8.3 -32.4°
Sets 13:17:14 0° 86° (E) 21,238 8.9 -38.3°
